Weather in Uelkal

Russia / Chukotka Autonomous Okrug     65°32′13″N   179°17′27″W
temp.,
°C
wind,
m/s
gust,
m/s
humid.,
%
clouds,
%
prec.,
mm/h
press.,
hPa
HPBL,
m
23 january, sat
sat2300:00−20nne6799100 1.1 1004254
03:00−21nne45100100 0.2 1005168
06:00−21nne33100100 0.3 1005104
09:00−21nne22100100 0.1 100761
12:00−22nnw22100100 0.1 100831
15:00−23nw2399100 0.0 100922
18:00−24wnw459781 0.0 101080
21:00−25nw469835 0.0 101198
24 january, sun
sun2400:00−25nw689844 0.0 1011119
03:00−25nw469751 0.0 101297
06:00−24nw689176 0.0 1012131
09:00−23nw6887100 0.0 1013162
12:00−22nnw7986100 0.0 1013197
15:00−20nnw6885100 0.0 1013269
18:00−18n5794100 0.1 1013361
21:00−17n5797100 1.5 1013416
25 january, mon
mon2500:00−17nne6896100 3.9 1012482
03:00−18ne101497100 1.9 1012518
06:00−19ne111691100 2.1 1012454
09:00−21ne121784100 0.0 1012509
12:00−21ne131886100 0.1 1012544
15:00−21nne121797100 0.2 1011526
18:00−22nne111698100 0.6 1012496
21:00−22nne101598100 0.5 1013485
26 january, tue
tue2600:00−22nne81297100 0.6 1014458
03:00−22nne6996100 0.1 1015453
06:00−22n4595100 0.1 1017430
09:00−22wnw3397100 0.1 1020201
12:00−21nw3497100 0.2 1023263
15:00−21wnw4595100 0.1 1026250
18:00−22nw5796100 0.1 1029223
21:00−26nw469792 0.0 1031136
27 january, wed
wed2700:00−27nw469757 0.0 1034116
03:00−28nw349927 0.0 103568
06:00−28nw239914 0.0 103735
09:00−28nnw23990 0.0 103830
12:00−27n34990 0.0 103865
15:00−25n3410045 0.0 103770
18:00−22nne579673 0.0 1036177
21:00−22nne6992100 0.0 1035220